WBANNO,USDM_WEEK,LONGITUDE,LATITUDE,SMVWC_5_CM_MEAN,SMANOM_5_CM_MEAN,SMPERC_5_CM_30COUNTS,SMPERC_5_CM_70COUNTS,SMVWC_10_CM_MEAN,SMANOM_10_CM_MEAN,SMPERC_10_CM_30COUNTS,SMPERC_10_CM_70COUNTS,SMVWC_20_CM_MEAN,SMANOM_20_CM_MEAN,SMPERC_20_CM_30COUNTS,SMPERC_20_CM_70COUNTS,SMVWC_50_CM_MEAN,SMANOM_50_CM_MEAN,SMPERC_50_CM_30COUNTS,SMPERC_50_CM_70COUNTS,SMVWC_100_CM_MEAN,SMANOM_100_CM_MEAN,SMPERC_100_CM_30COUNTS,SMPERC_100_CM_70COUNTS,SMVWC_TOP_CM_MEAN,SMANOM_TOP_CM_MEAN,SMPERC_TOP_CM_30COUNTS,SMPERC_TOP_CM_70COUNTS,SMVWC_COLUMN_CM_MEAN,SMANOM_COLUMN_CM_MEAN,SMPERC_COLUMN_CM_30COUNTS,SMPERC_COLUMN_CM_70COUNTS
92821,20110120,-80.69,28.62,,,,,,,,,,,,,,,,,,,,,,,,,,,,
92821,20110121,-80.69,28.62,,,,,,,,,,,,,,,,,,,,,,,,,,,,
92821,20110122,-80.69,28.62,,,,,,,,,,,,,,,,,,,,,,,,,,,,
92821,20110123,-80.69,28.62,,,,,,,,,,,,,,,,,,,,,,,,,,,,
92821,20110124,-80.69,28.62,,,,,,,,,,,,,,,,,,,,,,,,,,,,
92821,20110125,-80.69,28.62,0.196,0.14,0.088,0.154,0.196,0.05,0.066,0.015,,,,,,,,,,,,,0.196,0.15,0,0.184,,,,
92821,20110126,-80.69,28.62,0.2,0.2,0.075,0.206,0.202,0.1,0.056,0.088,,,,,,,,,,,,,0.201,0.21,0,0.231,,,,
92821,20110127,-80.69,28.62,0.21,0.32,0.065,0.339,0.214,0.22,0.054,0.226,,,,,,,,,,,,,0.212,0.34,0,0.363,,,,
92821,20110128,-80.69,28.62,0.217,0.42,0,0.464,0.225,0.33,0,0.369,,,,,,,,,,,,,0.221,0.45,0,0.494,,,,
92821,20110129,-80.69,28.62,0.214,0.38,0,0.351,0.225,0.33,0,0.429,,,,,,,,,,,,,0.219,0.43,0,0.5,,,,
92821,20110130,-80.69,28.62,0.214,0.38,0,0.351,0.226,0.36,0,0.429,,,,,,,,,,,,,0.22,0.44,0,0.5,,,,
92821,20110131,-80.69,28.62,0.214,0.38,0,0.351,0.229,0.38,0,0.429,,,,,,,,,,,,,0.222,0.45,0,0.5,,,,
92821,20110201,-80.69,28.62,0.215,0.39,0,0.351,0.231,0.41,0,0.429,,,,,,,,,,,,,0.223,0.47,0,0.5,,,,
92821,20110202,-80.69,28.62,0.21,0.32,0,0.28,0.227,0.36,0,0.357,,,,,,,,,,,,,0.218,0.41,0,0.429,,,,
92821,20110203,-80.69,28.62,0.202,0.21,0,0.137,0.217,0.27,0,0.214,,,,,,,,,,,,,0.21,0.3,0,0.286,,,,
92821,20110204,-80.69,28.62,0.197,0.13,0,0,0.21,0.2,0,0.071,,,,,,,,,,,,,0.203,0.21,0,0.143,,,,
92821,20110205,-80.69,28.62,0.192,0.07,0,0,0.204,0.14,0,0,,,,,,,,,,,,,0.198,0.15,0,0,,,,
92821,20110206,-80.69,28.62,0.189,0.01,0,0,0.2,0.09,0,0,,,,,,,,,,,,,0.194,0.09,0,0,,,,
92821,20110207,-80.69,28.62,0.187,-0.03,0,0,0.196,0.06,0,0,,,,,,,,,,,,,0.191,0.05,0,0,,,,
92821,20110208,-80.69,28.62,0.185,-0.06,0,0,0.194,0.03,0,0,,,,,,,,,,,,,0.189,0.03,0,0,,,,
92821,20110209,-80.69,28.62,0.184,-0.09,0,0,0.192,0.01,0,0,,,,,,,,,,,,,0.188,0,0,0,,,,
92821,20110210,-80.69,28.62,0.183,-0.11,0,0,0.19,-0.01,0,0,,,,,,,,,,,,,0.186,-0.02,0,0,,,,
92821,20110211,-80.69,28.62,0.182,-0.13,0,0,0.188,-0.02,0,0,,,,,,,,,,,,,0.185,-0.03,0,0,,,,
92821,20110212,-80.69,28.62,0.182,-0.14,0,0,0.188,-0.03,0,0,,,,,,,,,,,,,0.185,-0.03,0,0,,,,
92821,20110213,-80.69,28.62,0.182,-0.15,0,0,0.187,-0.03,0,0,,,,,,,,,,,,,0.184,-0.04,0,0,,,,
92821,20110214,-80.69,28.62,0.181,-0.16,0,0,0.186,-0.04,0,0,,,,,,,,,,,,,0.184,-0.04,0,0,,,,
92821,20110215,-80.69,28.62,0.18,-0.16,0,0,0.185,-0.04,0,0,,,,,,,,,,,,,0.183,-0.05,0,0,,,,
92821,20110216,-80.69,28.62,0.18,-0.17,0,0,0.183,-0.05,0,0,,,,,,,,,,,,,0.182,-0.06,0,0,,,,
92821,20110217,-80.69,28.62,0.179,-0.16,0,0,0.182,-0.06,0,0,,,,,,,,,,,,,0.181,-0.07,0,0,,,,
92821,20110218,-80.69,28.62,0.178,-0.16,0,0,0.18,-0.07,0,0,,,,,,,,,,,,,0.179,-0.08,0,0,,,,
92821,20110219,-80.69,28.62,0.178,-0.15,0,0,0.179,-0.07,0,0,,,,,,,,,,,,,0.178,-0.09,0,0,,,,
92821,20110220,-80.69,28.62,0.177,-0.14,0,0,0.177,-0.08,0,0,,,,,,,,,,,,,0.177,-0.09,0,0,,,,
92821,20110221,-80.69,28.62,0.176,-0.14,0,0,0.175,-0.08,0,0,,,,,,,,,,,,,0.176,-0.1,0,0,,,,
92821,20110222,-80.69,28.62,0.176,-0.14,0,0,0.174,-0.08,0,0,,,,,,,,,,,,,0.175,-0.1,0,0,,,,
92821,20110223,-80.69,28.62,0.175,-0.13,0,0,0.173,-0.07,0,0,,,,,,,,,,,,,0.174,-0.1,0,0,,,,
92821,20110224,-80.69,28.62,0.174,-0.13,0,0,0.172,-0.07,0,0,,,,,,,,,,,,,0.173,-0.1,0,0,,,,
92821,20110225,-80.69,28.62,0.173,-0.13,0,0,0.171,-0.07,0,0,,,,,,,,,,,,,0.172,-0.1,0,0,,,,
92821,20110226,-80.69,28.62,0.172,-0.13,0,0,0.17,-0.07,0,0,,,,,,,,,,,,,0.171,-0.1,0,0,,,,
92821,20110227,-80.69,28.62,0.172,-0.13,0,0,0.169,-0.07,0,0,,,,,,,,,,,,,0.17,-0.1,0,0,,,,
92821,20110228,-80.69,28.62,0.171,-0.13,0,0,0.168,-0.07,0,0,,,,,,,,,,,,,0.169,-0.1,0,0,,,,
92821,20110301,-80.69,28.62,0.17,-0.13,0,0,0.167,-0.08,0,0,,,,,,,,,,,,,0.168,-0.1,0,0,,,,
92821,20110302,-80.69,28.62,0.172,-0.09,0,0.012,0.168,-0.05,0,0,,,,,,,,,,,,,0.17,-0.07,0,0.006,,,,
92821,20110303,-80.69,28.62,0.172,-0.08,0,0.012,0.168,-0.04,0,0,,,,,,,,,,,,,0.17,-0.06,0,0.006,,,,
92821,20110304,-80.69,28.62,0.172,-0.06,0,0.012,0.167,-0.05,0,0,,,,,,,,,,,,,0.17,-0.05,0,0.006,,,,
92821,20110305,-80.69,28.62,0.175,-0.01,0,0.095,0.167,-0.03,0,0,,,,,,,,,,,,,0.171,-0.02,0,0.036,,,,
92821,20110306,-80.69,28.62,0.177,0.04,0,0.161,0.168,0,0,0,,,,,,,,,,,,,0.173,0.02,0,0.036,,,,
92821,20110307,-80.69,28.62,0.179,0.08,0,0.161,0.169,0.02,0,0,,,,,,,,,,,,,0.174,0.05,0,0.036,,,,
92821,20110308,-80.69,28.62,0.181,0.11,0,0.161,0.17,0.04,0,0,,,,,,,,,,,,,0.175,0.07,0,0.036,,,,
92821,20110309,-80.69,28.62,0.179,0.1,0,0.149,0.168,0.03,0,0,,,,,,,,,,,,,0.174,0.05,0,0.03,,,,
92821,20110310,-80.69,28.62,0.179,0.1,0,0.149,0.167,0.03,0,0,,,,,,,,,,,,,0.173,0.05,0,0.03,,,,
92821,20110311,-80.69,28.62,0.184,0.2,0,0.274,0.171,0.1,0,0.119,,,,,,,,,,,,,0.177,0.13,0,0.155,,,,
92821,20110312,-80.69,28.62,0.184,0.21,0,0.333,0.172,0.14,0,0.179,,,,,,,,,,,,,0.178,0.15,0,0.202,,,,
92821,20110313,-80.69,28.62,0.183,0.21,0,0.327,0.171,0.16,0,0.179,,,,,,,,,,,,,0.177,0.16,0,0.202,,,,
92821,20110314,-80.69,28.62,0.182,0.2,0,0.327,0.171,0.17,0,0.179,,,,,,,,,,,,,0.177,0.16,0,0.202,,,,
92821,20110315,-80.69,28.62,0.181,0.19,0,0.327,0.171,0.19,0,0.179,,,,,,,,,,,,,0.176,0.16,0,0.202,,,,
92821,20110316,-80.69,28.62,0.181,0.19,0,0.327,0.171,0.21,0,0.179,,,,,,,,,,,,,0.176,0.17,0,0.202,,,,
92821,20110317,-80.69,28.62,0.18,0.18,0,0.327,0.171,0.23,0,0.179,,,,,,,,,,,,,0.176,0.18,0,0.202,,,,
92821,20110318,-80.69,28.62,0.174,0.07,0,0.202,0.168,0.19,0,0.06,,,,,,,,,,,,,0.171,0.1,0,0.077,,,,
92821,20110319,-80.69,28.62,0.17,0.01,0,0.06,0.166,0.17,0,0,,,,,,,,,,,,,0.168,0.06,0,0,,,,
92821,20110320,-80.69,28.62,0.167,-0.04,0,0,0.164,0.15,0,0,,,,,,,,,,,,,0.166,0.03,0,0,,,,
92821,20110321,-80.69,28.62,0.165,-0.07,0,0,0.162,0.15,0,0,,,,,,,,,,,,,0.164,0,0,0,,,,
92821,20110322,-80.69,28.62,0.163,-0.1,0,0,0.161,0.14,0,0,,,,,,,,,,,,,0.162,-0.01,0,0,,,,
92821,20110323,-80.69,28.62,0.161,-0.13,0,0,0.16,0.14,0,0,,,,,,,,,,,,,0.16,-0.03,0,0,,,,
92821,20110324,-80.69,28.62,0.158,-0.15,0,0,0.158,0.13,0,0,,,,,,,,,,,,,0.158,-0.05,0,0,,,,
92821,20110325,-80.69,28.62,0.156,-0.17,0,0,0.156,0.11,0,0,,,,,,,,,,,,,0.156,-0.07,0,0,,,,
92821,20110326,-80.69,28.62,0.154,-0.19,0,0,0.154,0.1,0,0,,,,,,,,,,,,,0.154,-0.09,0,0,,,,
92821,20110327,-80.69,28.62,0.152,-0.22,0,0,0.152,0.08,0,0,,,,,,,,,,,,,0.152,-0.11,0,0,,,,
92821,20110328,-80.69,28.62,0.149,-0.25,0,0,0.15,0.06,0,0,,,,,,,,,,,,,0.15,-0.14,0,0,,,,
92821,20110329,-80.69,28.62,0.154,-0.18,0,0.089,0.155,0.13,0,0.107,,,,,,,,,,,,,0.154,-0.07,0,0.101,,,,
92821,20110330,-80.69,28.62,0.158,-0.12,0,0.089,0.158,0.18,0,0.22,,,,,,,,,,,,,0.158,-0.01,0,0.137,,,,
92821,20110331,-80.69,28.62,0.162,-0.06,0,0.089,0.16,0.23,0,0.304,,,,,,,,,,,,,0.161,0.04,0,0.137,,,,
92821,20110401,-80.69,28.62,0.195,0.36,0,0.232,0.193,0.73,0,0.446,,,,,,,,,,,,,0.194,0.5,0,0.28,,,,
92821,20110402,-80.69,28.62,0.226,0.76,0,0.375,0.229,1.26,0,0.589,,,,,,,,,,,,,0.228,0.97,0,0.423,,,,
92821,20110403,-80.69,28.62,0.251,1.07,0,0.518,0.26,1.71,0,0.732,,,,,,,,,,,,,0.255,1.35,0,0.565,,,,
92821,20110404,-80.69,28.62,0.272,1.33,0,0.661,0.285,2.08,0,0.875,,,,,,,,,,,,,0.279,1.66,0,0.708,,,,
92821,20110405,-80.69,28.62,0.281,1.44,0,0.714,0.301,2.29,0,0.911,,,,,,,,,,,,,0.291,1.83,0,0.75,,,,
92821,20110406,-80.69,28.62,0.294,1.6,0,0.857,0.32,2.56,0,0.94,,,,,,,,,,,,,0.307,2.04,0,0.857,,,,
92821,20110407,-80.69,28.62,0.304,1.73,0,1,0.338,2.8,0,1,,,,,,,,,,,,,0.321,2.23,0,1,,,,
92821,20110408,-80.69,28.62,0.284,1.46,0,1,0.323,2.56,0,1,,,,,,,,,,,,,0.303,1.98,0,1,,,,
92821,20110409,-80.69,28.62,0.264,1.21,0,1,0.302,2.24,0,1,,,,,,,,,,,,,0.283,1.68,0,1,,,,
92821,20110410,-80.69,28.62,0.25,1.03,0,1,0.284,1.97,0,1,,,,,,,,,,,,,0.267,1.45,0,1,,,,
92821,20110411,-80.69,28.62,0.239,0.89,0,1,0.27,1.76,0,1,,,,,,,,,,,,,0.255,1.28,0,1,,,,
92821,20110412,-80.69,28.62,0.232,0.79,0,1,0.257,1.59,0,1,,,,,,,,,,,,,0.245,1.14,0,1,,,,
92821,20110413,-80.69,28.62,0.221,0.66,0,0.917,0.242,1.38,0,1,,,,,,,,,,,,,0.231,0.95,0,1,,,,
92821,20110414,-80.69,28.62,0.212,0.55,0,0.798,0.228,1.2,0,1,,,,,,,,,,,,,0.22,0.79,0,1,,,,
92821,20110415,-80.69,28.62,0.205,0.46,0,0.655,0.216,1.04,0,1,,,,,,,,,,,,,0.21,0.66,0,1,,,,
92821,20110416,-80.69,28.62,0.198,0.38,0,0.512,0.206,0.92,0,1,,,,,,,,,,,,,0.202,0.55,0,1,,,,
92821,20110417,-80.69,28.62,0.192,0.32,0,0.369,0.199,0.83,0,1,,,,,,,,,,,,,0.195,0.47,0,0.917,,,,
92821,20110418,-80.69,28.62,0.186,0.27,0,0.226,0.192,0.75,0,1,,,,,,,,,,,,,0.189,0.4,0,0.78,,,,
92821,20110419,-80.69,28.62,0.181,0.21,0,0.083,0.187,0.68,0,1,,,,,,,,,,,,,0.184,0.34,0,0.637,,,,
92821,20110420,-80.69,28.62,0.176,0.16,0,0.024,0.182,0.62,0,0.923,,,,,,,,,,,,,0.179,0.29,0,0.494,,,,
92821,20110421,-80.69,28.62,0.171,0.11,0,0,0.178,0.55,0,0.78,,,,,,,,,,,,,0.174,0.24,0,0.351,,,,
92821,20110422,-80.69,28.62,0.166,0.05,0,0,0.173,0.49,0,0.637,,,,,,,,,,,,,0.169,0.19,0,0.208,,,,
92821,20110423,-80.69,28.62,0.16,0,0,0,0.169,0.42,0,0.494,,,,,,,,,,,,,0.164,0.13,0,0.065,,,,
92821,20110424,-80.69,28.62,0.154,-0.07,0,0,0.164,0.35,0,0.351,,,,,,,,,,,,,0.159,0.07,0,0.006,,,,
92821,20110425,-80.69,28.62,0.148,-0.14,0.006,0,0.16,0.28,0,0.208,,,,,,,,,,,,,0.154,0.01,0,0,,,,
92821,20110426,-80.69,28.62,0.143,-0.2,0.054,0,0.155,0.23,0,0.065,,,,,,,,,,,,,0.149,-0.05,0,0,,,,
92821,20110427,-80.69,28.62,0.146,-0.15,0.083,0.095,0.158,0.27,0,0.095,,,,,,,,,,,,,0.152,0.01,0,0.095,,,,
92821,20110428,-80.69,28.62,0.149,-0.09,0.083,0.226,0.161,0.32,0,0.238,,,,,,,,,,,,,0.155,0.06,0,0.238,,,,
92821,20110429,-80.69,28.62,0.155,0.02,0.083,0.315,0.165,0.39,0,0.381,,,,,,,,,,,,,0.16,0.15,0,0.375,,,,
92821,20110430,-80.69,28.62,0.162,0.12,0.083,0.458,0.17,0.47,0,0.524,,,,,,,,,,,,,0.166,0.24,0,0.518,,,,
92821,20110501,-80.69,28.62,0.167,0.22,0.083,0.601,0.174,0.53,0,0.667,,,,,,,,,,,,,0.17,0.32,0,0.661,,,,
92821,20110502,-80.69,28.62,0.172,0.3,0.077,0.649,0.177,0.59,0,0.81,,,,,,,,,,,,,0.175,0.4,0,0.804,,,,
92821,20110503,-80.69,28.62,0.176,0.38,0.03,0.649,0.18,0.64,0,0.952,,,,,,,,,,,,,0.178,0.47,0,0.911,,,,
92821,20110504,-80.69,28.62,0.172,0.33,0,0.554,0.176,0.59,0,1,,,,,,,,,,,,,0.174,0.42,0,0.833,,,,
92821,20110505,-80.69,28.62,0.166,0.27,0,0.423,0.171,0.54,0,0.887,,,,,,,,,,,,,0.169,0.38,0,0.69,,,,
92821,20110506,-80.69,28.62,0.157,0.16,0,0.333,0.165,0.47,0,0.744,,,,,,,,,,,,,0.161,0.29,0,0.554,,,,
92821,20110507,-80.69,28.62,0.148,0.05,0,0.19,0.159,0.39,0,0.601,,,,,,,,,,,,,0.154,0.2,0,0.411,,,,
92821,20110508,-80.69,28.62,0.141,-0.03,0,0.048,0.155,0.34,0,0.458,,,,,,,,,,,,,0.148,0.13,0,0.268,,,,
92821,20110509,-80.69,28.62,0.133,-0.12,0,0,0.15,0.28,0,0.315,,,,,,,,,,,,,0.142,0.06,0,0.125,,,,
92821,20110510,-80.69,28.62,0.125,-0.21,0.065,0,0.145,0.22,0,0.173,,,,,,,,,,,,,0.135,-0.01,0,0.018,,,,
92821,20110511,-80.69,28.62,0.117,-0.3,0.208,0,0.141,0.16,0,0.03,,,,,,,,,,,,,0.129,-0.09,0,0,,,,
92821,20110512,-80.69,28.62,0.109,-0.39,0.351,0,0.135,0.1,0,0,,,,,,,,,,,,,0.122,-0.17,0.036,0,,,,
92821,20110513,-80.69,28.62,0.1,-0.49,0.494,0,0.129,0.03,0,0,,,,,,,,,,,,,0.115,-0.25,0.167,0,,,,
92821,20110514,-80.69,28.62,0.091,-0.59,0.637,0,0.123,-0.05,0,0,,,,,,,,,,,,,0.107,-0.35,0.31,0,,,,
92821,20110515,-80.69,28.62,0.09,-0.59,0.702,0.048,0.121,-0.07,0,0.071,,,,,,,,,,,,,0.105,-0.36,0.369,0.065,,,,
92821,20110516,-80.69,28.62,0.093,-0.54,0.702,0.048,0.121,-0.06,0,0.071,,,,,,,,,,,,,0.107,-0.33,0.369,0.065,,,,
92821,20110517,-80.69,28.62,0.095,-0.51,0.637,0.048,0.121,-0.07,0,0.071,,,,,,,,,,,,,0.108,-0.31,0.369,0.065,,,,
92821,20110518,-80.69,28.62,0.096,-0.49,0.589,0.048,0.119,-0.08,0,0.071,,,,,,,,,,,,,0.108,-0.31,0.369,0.065,,,,
92821,20110519,-80.69,28.62,0.096,-0.48,0.589,0.048,0.118,-0.09,0,0.071,,,,,,,,,,,,,0.107,-0.31,0.369,0.065,,,,
92821,20110520,-80.69,28.62,0.095,-0.47,0.589,0.048,0.116,-0.11,0,0.071,,,,,,,,,,,,,0.106,-0.31,0.363,0.065,,,,
92821,20110521,-80.69,28.62,0.094,-0.45,0.589,0.048,0.115,-0.13,0,0.071,,,,,,,,,,,,,0.104,-0.31,0.363,0.065,,,,
92821,20110522,-80.69,28.62,0.085,-0.55,0.667,0,0.108,-0.21,0,0,,,,,,,,,,,,,0.096,-0.4,0.446,0,,,,
92821,20110523,-80.69,28.62,0.072,-0.69,0.81,0,0.098,-0.32,0.113,0,,,,,,,,,,,,,0.085,-0.52,0.589,0,,,,
92821,20110524,-80.69,28.62,0.061,-0.8,0.952,0,0.09,-0.42,0.256,0,,,,,,,,,,,,,0.076,-0.62,0.732,0,,,,
92821,20110525,-80.69,28.62,0.053,-0.88,1,0,0.083,-0.5,0.399,0,,,,,,,,,,,,,0.068,-0.7,0.875,0,,,,
92821,20110526,-80.69,28.62,0.047,-0.92,1,0,0.076,-0.58,0.542,0,,,,,,,,,,,,,0.061,-0.76,0.982,0,,,,
92821,20110527,-80.69,28.62,0.042,-0.95,1,0,0.07,-0.64,0.685,0,,,,,,,,,,,,,0.056,-0.8,1,0,,,,
92821,20110528,-80.69,28.62,0.039,-0.96,1,0,0.065,-0.7,0.827,0,,,,,,,,,,,,,0.052,-0.84,1,0,,,,
92821,20110529,-80.69,28.62,0.037,-0.97,1,0,0.06,-0.75,0.97,0,,,,,,,,,,,,,0.049,-0.87,1,0,,,,
92821,20110530,-80.69,28.62,0.035,-0.98,1,0,0.057,-0.8,1,0,,,,,,,,,,,,,0.046,-0.89,1,0,,,,
92821,20110531,-80.69,28.62,0.034,-0.99,1,0,0.053,-0.84,1,0,,,,,,,,,,,,,0.044,-0.91,1,0,,,,
92821,20110601,-80.69,28.62,0.033,-1.01,1,0,0.051,-0.88,1,0,,,,,,,,,,,,,0.042,-0.93,1,0,,,,
92821,20110602,-80.69,28.62,0.039,-0.95,1,0,0.054,-0.86,0.958,0,,,,,,,,,,,,,0.046,-0.88,1,0,,,,
92821,20110603,-80.69,28.62,0.045,-0.9,1,0,0.058,-0.82,0.929,0,,,,,,,,,,,,,0.052,-0.83,1,0,,,,
92821,20110604,-80.69,28.62,0.049,-0.86,1,0,0.062,-0.8,0.929,0,,,,,,,,,,,,,0.055,-0.8,1,0,,,,
92821,20110605,-80.69,28.62,0.051,-0.83,1,0,0.064,-0.8,0.929,0,,,,,,,,,,,,,0.058,-0.79,1,0,,,,
92821,20110606,-80.69,28.62,0.053,-0.81,1,0,0.066,-0.8,0.929,0,,,,,,,,,,,,,0.059,-0.79,1,0,,,,
92821,20110607,-80.69,28.62,0.054,-0.79,1,0,0.067,-0.81,0.929,0,,,,,,,,,,,,,0.06,-0.8,1,0,,,,
92821,20110608,-80.69,28.62,0.054,-0.76,1,0,0.067,-0.83,0.929,0,,,,,,,,,,,,,0.061,-0.81,1,0,,,,
92821,20110609,-80.69,28.62,0.048,-0.79,1,0,0.063,-0.92,0.97,0,,,,,,,,,,,,,0.055,-0.88,1,0,,,,
92821,20110610,-80.69,28.62,0.042,-0.83,1,0,0.057,-1.03,1,0,,,,,,,,,,,,,0.049,-0.96,1,0,,,,
92821,20110611,-80.69,28.62,0.038,-0.84,1,0,0.052,-1.13,1,0,,,,,,,,,,,,,0.045,-1.01,1,0,,,,
92821,20110612,-80.69,28.62,0.035,-0.85,1,0,0.047,-1.2,1,0,,,,,,,,,,,,,0.041,-1.05,1,0,,,,
92821,20110613,-80.69,28.62,0.034,-0.84,1,0,0.044,-1.27,1,0,,,,,,,,,,,,,0.039,-1.07,1,0,,,,
92821,20110614,-80.69,28.62,0.034,-0.82,1,0,0.042,-1.31,1,0,,,,,,,,,,,,,0.038,-1.07,1,0,,,,
92821,20110615,-80.69,28.62,0.04,-0.76,0.982,0,0.048,-1.22,0.904,0,,,,,,,,,,,,,0.044,-0.99,0.94,0,,,,
92821,20110616,-80.69,28.62,0.049,-0.68,0.982,0,0.057,-1.08,0.887,0,,,,,,,,,,,,,0.053,-0.88,0.94,0,,,,
92821,20110617,-80.69,28.62,0.057,-0.63,0.982,0,0.065,-0.96,0.887,0,,,,,,,,,,,,,0.061,-0.79,0.94,0,,,,
92821,20110618,-80.69,28.62,0.063,-0.59,0.982,0,0.073,-0.84,0.887,0,,,,,,,,,,,,,0.068,-0.72,0.94,0,,,,
92821,20110619,-80.69,28.62,0.074,-0.51,0.911,0,0.084,-0.68,0.815,0.012,,,,,,,,,,,,,0.079,-0.6,0.869,0,,,,
92821,20110620,-80.69,28.62,0.086,-0.42,0.857,0,0.097,-0.51,0.673,0.012,,,,,,,,,,,,,0.092,-0.48,0.792,0,,,,
92821,20110621,-80.69,28.62,0.096,-0.36,0.857,0,0.109,-0.35,0.631,0.012,,,,,,,,,,,,,0.102,-0.38,0.792,0,,,,
92821,20110622,-80.69,28.62,0.097,-0.36,0.875,0,0.111,-0.32,0.714,0.012,,,,,,,,,,,,,0.104,-0.36,0.851,0,,,,
92821,20110623,-80.69,28.62,0.095,-0.38,0.875,0,0.111,-0.33,0.732,0.012,,,,,,,,,,,,,0.103,-0.38,0.851,0,,,,
92821,20110624,-80.69,28.62,0.093,-0.4,0.875,0,0.11,-0.33,0.732,0.012,,,,,,,,,,,,,0.101,-0.38,0.851,0,,,,
92821,20110625,-80.69,28.62,0.092,-0.41,0.875,0,0.109,-0.34,0.732,0.012,,,,,,,,,,,,,0.1,-0.39,0.851,0,,,,
92821,20110626,-80.69,28.62,0.085,-0.45,0.946,0,0.104,-0.38,0.804,0,,,,,,,,,,,,,0.095,-0.43,0.923,0,,,,
92821,20110627,-80.69,28.62,0.08,-0.49,1,0,0.098,-0.43,0.946,0,,,,,,,,,,,,,0.089,-0.48,1,0,,,,
92821,20110628,-80.69,28.62,0.078,-0.5,1,0,0.094,-0.46,0.988,0,,,,,,,,,,,,,0.086,-0.49,1,0,,,,
92821,20110629,-80.69,28.62,0.079,-0.49,1,0,0.091,-0.48,1,0,,,,,,,,,,,,,0.085,-0.49,1,0,,,,
92821,20110630,-80.69,28.62,0.092,-0.38,0.875,0.024,0.098,-0.4,0.875,0.03,,,,,,,,,,,,,0.095,-0.4,0.875,0.024,,,,
92821,20110701,-80.69,28.62,0.103,-0.29,0.732,0.024,0.105,-0.32,0.732,0.03,,,,,,,,,,,,,0.104,-0.31,0.732,0.024,,,,
92821,20110702,-80.69,28.62,0.114,-0.21,0.589,0.024,0.111,-0.25,0.589,0.03,,,,,,,,,,,,,0.113,-0.23,0.589,0.024,,,,
92821,20110703,-80.69,28.62,0.123,-0.14,0.482,0.024,0.117,-0.18,0.446,0.03,,,,,,,,,,,,,0.12,-0.17,0.446,0.024,,,,
92821,20110704,-80.69,28.62,0.127,-0.12,0.476,0.024,0.123,-0.14,0.304,0.03,,,,,,,,,,,,,0.125,-0.13,0.387,0.024,,,,
92821,20110705,-80.69,28.62,0.128,-0.12,0.476,0.024,0.127,-0.1,0.161,0.03,,,,,,,,,,,,,0.127,-0.12,0.387,0.024,,,,
92821,20110706,-80.69,28.62,0.127,-0.14,0.476,0.024,0.13,-0.08,0.119,0.03,,,,,,,,,,,,,0.128,-0.11,0.387,0.024,,,,
92821,20110707,-80.69,28.62,0.114,-0.26,0.601,0,0.123,-0.14,0.244,0,,,,,,,,,,,,,0.118,-0.21,0.512,0,,,,
92821,20110708,-80.69,28.62,0.113,-0.27,0.631,0,0.122,-0.15,0.274,0,,,,,,,,,,,,,0.117,-0.22,0.542,0,,,,
92821,20110709,-80.69,28.62,0.112,-0.28,0.631,0,0.122,-0.16,0.274,0,,,,,,,,,,,,,0.117,-0.23,0.542,0,,,,
92821,20110710,-80.69,28.62,0.112,-0.29,0.679,0,0.121,-0.17,0.274,0,,,,,,,,,,,,,0.117,-0.24,0.542,0,,,,
92821,20110711,-80.69,28.62,0.113,-0.29,0.685,0,0.121,-0.18,0.274,0,,,,,,,,,,,,,0.117,-0.24,0.565,0,,,,
92821,20110712,-80.69,28.62,0.115,-0.27,0.631,0,0.121,-0.19,0.304,0,,,,,,,,,,,,,0.118,-0.24,0.512,0,,,,
92821,20110713,-80.69,28.62,0.121,-0.22,0.524,0,0.123,-0.17,0.208,0,,,,,,,,,,,,,0.122,-0.21,0.399,0,,,,
92821,20110714,-80.69,28.62,0.131,-0.14,0.381,0,0.126,-0.14,0.065,0,,,,,,,,,,,,,0.129,-0.15,0.256,0,,,,
92821,20110715,-80.69,28.62,0.132,-0.14,0.351,0.018,0.127,-0.15,0.036,0,,,,,,,,,,,,,0.129,-0.15,0.226,0.012,,,,
92821,20110716,-80.69,28.62,0.137,-0.1,0.351,0.018,0.129,-0.13,0.036,0,,,,,,,,,,,,,0.133,-0.12,0.226,0.012,,,,
92821,20110717,-80.69,28.62,0.141,-0.07,0.268,0.018,0.131,-0.1,0.036,0,,,,,,,,,,,,,0.136,-0.09,0.226,0.012,,,,
92821,20110718,-80.69,28.62,0.144,-0.03,0.125,0.018,0.133,-0.08,0.036,0,,,,,,,,,,,,,0.139,-0.06,0.119,0.012,,,,
92821,20110719,-80.69,28.62,0.148,0,0.036,0.018,0.136,-0.06,0.006,0,,,,,,,,,,,,,0.142,-0.03,0.03,0.012,,,,
92821,20110720,-80.69,28.62,0.148,-0.01,0.077,0.018,0.137,-0.05,0,0,,,,,,,,,,,,,0.142,-0.03,0,0.012,,,,
92821,20110721,-80.69,28.62,0.143,-0.05,0.22,0.018,0.135,-0.06,0.012,0,,,,,,,,,,,,,0.139,-0.05,0.089,0.012,,,,
92821,20110722,-80.69,28.62,0.136,-0.11,0.363,0,0.133,-0.08,0.125,0,,,,,,,,,,,,,0.134,-0.09,0.232,0,,,,
92821,20110723,-80.69,28.62,0.126,-0.2,0.506,0,0.128,-0.13,0.268,0,,,,,,,,,,,,,0.127,-0.16,0.375,0,,,,
92821,20110724,-80.69,28.62,0.117,-0.28,0.649,0,0.123,-0.18,0.411,0,,,,,,,,,,,,,0.12,-0.22,0.518,0,,,,
92821,20110725,-80.69,28.62,0.109,-0.36,0.792,0,0.119,-0.22,0.554,0,,,,,,,,,,,,,0.114,-0.28,0.661,0,,,,
92821,20110726,-80.69,28.62,0.099,-0.45,0.935,0,0.113,-0.27,0.696,0,,,,,,,,,,,,,0.106,-0.35,0.804,0,,,,
92821,20110727,-80.69,28.62,0.091,-0.52,1,0,0.108,-0.32,0.839,0,,,,,,,,,,,,,0.1,-0.41,0.946,0,,,,
92821,20110728,-80.69,28.62,0.084,-0.58,1,0,0.104,-0.36,0.97,0,,,,,,,,,,,,,0.094,-0.46,1,0,,,,
92821,20110729,-80.69,28.62,0.078,-0.63,1,0,0.099,-0.41,1,0,,,,,,,,,,,,,0.088,-0.51,1,0,,,,
92821,20110730,-80.69,28.62,0.072,-0.68,1,0,0.093,-0.45,1,0,,,,,,,,,,,,,0.082,-0.57,1,0,,,,
92821,20110731,-80.69,28.62,0.066,-0.72,1,0,0.086,-0.49,1,0,,,,,,,,,,,,,0.076,-0.61,1,0,,,,
92821,20110801,-80.69,28.62,0.06,-0.75,1,0,0.08,-0.53,1,0,,,,,,,,,,,,,0.07,-0.66,1,0,,,,
92821,20110802,-80.69,28.62,0.06,-0.74,1,0,0.082,-0.49,0.905,0,,,,,,,,,,,,,0.071,-0.64,0.97,0,,,,
92821,20110803,-80.69,28.62,0.065,-0.69,0.94,0,0.09,-0.43,0.774,0,,,,,,,,,,,,,0.077,-0.58,0.905,0,,,,
92821,20110804,-80.69,28.62,0.072,-0.62,0.893,0,0.097,-0.36,0.631,0,,,,,,,,,,,,,0.084,-0.51,0.762,0,,,,
92821,20110805,-80.69,28.62,0.078,-0.57,0.893,0,0.103,-0.3,0.488,0,,,,,,,,,,,,,0.09,-0.45,0.738,0,,,,
92821,20110806,-80.69,28.62,0.083,-0.52,0.893,0,0.11,-0.24,0.399,0,,,,,,,,,,,,,0.096,-0.39,0.738,0,,,,
92821,20110807,-80.69,28.62,0.087,-0.48,0.893,0,0.116,-0.18,0.399,0,,,,,,,,,,,,,0.102,-0.34,0.738,0,,,,
92821,20110808,-80.69,28.62,0.095,-0.41,0.827,0,0.128,-0.09,0.31,0,,,,,,,,,,,,,0.111,-0.25,0.649,0,,,,
92821,20110809,-80.69,28.62,0.103,-0.35,0.72,0,0.133,-0.06,0.262,0,,,,,,,,,,,,,0.118,-0.2,0.536,0,,,,
92821,20110810,-80.69,28.62,0.109,-0.31,0.637,0,0.134,-0.05,0.25,0,,,,,,,,,,,,,0.121,-0.17,0.458,0,,,,
92821,20110811,-80.69,28.62,0.111,-0.3,0.542,0,0.134,-0.05,0.25,0,,,,,,,,,,,,,0.122,-0.16,0.458,0,,,,
92821,20110812,-80.69,28.62,0.113,-0.29,0.5,0,0.135,-0.05,0.25,0,,,,,,,,,,,,,0.124,-0.15,0.339,0,,,,
92821,20110813,-80.69,28.62,0.115,-0.28,0.5,0,0.136,-0.05,0.232,0,,,,,,,,,,,,,0.126,-0.14,0.298,0,,,,
92821,20110814,-80.69,28.62,0.118,-0.27,0.5,0,0.137,-0.04,0.232,0,,,,,,,,,,,,,0.127,-0.14,0.298,0,,,,
92821,20110815,-80.69,28.62,0.122,-0.25,0.482,0,0.136,-0.05,0.238,0,,,,,,,,,,,,,0.129,-0.13,0.304,0,,,,
92821,20110816,-80.69,28.62,0.122,-0.26,0.53,0,0.134,-0.07,0.238,0,,,,,,,,,,,,,0.128,-0.15,0.304,0,,,,
92821,20110817,-80.69,28.62,0.121,-0.28,0.601,0,0.13,-0.09,0.304,0,,,,,,,,,,,,,0.125,-0.17,0.369,0,,,,
92821,20110818,-80.69,28.62,0.122,-0.29,0.661,0,0.129,-0.1,0.304,0,,,,,,,,,,,,,0.125,-0.18,0.369,0,,,,
92821,20110819,-80.69,28.62,0.123,-0.3,0.702,0,0.128,-0.11,0.405,0,,,,,,,,,,,,,0.125,-0.2,0.476,0,,,,
92821,20110820,-80.69,28.62,0.123,-0.32,0.702,0,0.127,-0.12,0.512,0,,,,,,,,,,,,,0.125,-0.22,0.518,0,,,,
92821,20110821,-80.69,28.62,0.132,-0.27,0.577,0,0.131,-0.1,0.393,0,,,,,,,,,,,,,0.131,-0.18,0.393,0,,,,
92821,20110822,-80.69,28.62,0.133,-0.27,0.613,0,0.132,-0.1,0.333,0,,,,,,,,,,,,,0.132,-0.18,0.363,0,,,,
92821,20110823,-80.69,28.62,0.132,-0.3,0.673,0,0.131,-0.11,0.369,0,,,,,,,,,,,,,0.131,-0.2,0.494,0,,,,
92821,20110824,-80.69,28.62,0.129,-0.34,0.744,0,0.13,-0.12,0.411,0,,,,,,,,,,,,,0.129,-0.23,0.571,0,,,,
92821,20110825,-80.69,28.62,0.124,-0.41,0.827,0,0.127,-0.13,0.536,0,,,,,,,,,,,,,0.126,-0.28,0.714,0,,,,
92821,20110826,-80.69,28.62,0.128,-0.39,0.744,0,0.13,-0.12,0.494,0,,,,,,,,,,,,,0.129,-0.26,0.667,0,,,,
92821,20110827,-80.69,28.62,0.137,-0.32,0.601,0,0.137,-0.09,0.351,0,,,,,,,,,,,,,0.137,-0.19,0.524,0,,,,
92821,20110828,-80.69,28.62,0.136,-0.35,0.696,0,0.137,-0.09,0.327,0,,,,,,,,,,,,,0.136,-0.21,0.536,0,,,,
92821,20110829,-80.69,28.62,0.136,-0.38,0.744,0,0.137,-0.1,0.327,0,,,,,,,,,,,,,0.136,-0.23,0.631,0,,,,
92821,20110830,-80.69,28.62,0.136,-0.39,0.744,0,0.138,-0.11,0.399,0,,,,,,,,,,,,,0.137,-0.24,0.643,0,,,,
92821,20110831,-80.69,28.62,0.137,-0.4,0.744,0,0.139,-0.11,0.429,0,,,,,,,,,,,,,0.138,-0.25,0.643,0,,,,
92821,20110901,-80.69,28.62,0.14,-0.39,0.744,0,0.14,-0.11,0.446,0,,,,,,,,,,,,,0.14,-0.25,0.643,0,,,,
92821,20110902,-80.69,28.62,0.14,-0.4,0.786,0,0.14,-0.13,0.417,0,,,,,,,,,,,,,0.14,-0.26,0.625,0,,,,
92821,20110903,-80.69,28.62,0.136,-0.44,0.929,0,0.136,-0.15,0.518,0,,,,,,,,,,,,,0.136,-0.31,0.768,0,,,,
92821,20110904,-80.69,28.62,0.133,-0.47,0.958,0,0.134,-0.17,0.661,0,,,,,,,,,,,,,0.133,-0.33,0.881,0,,,,
92821,20110905,-80.69,28.62,0.13,-0.48,0.958,0,0.132,-0.19,0.804,0,,,,,,,,,,,,,0.131,-0.34,0.899,0,,,,
92821,20110906,-80.69,28.62,0.129,-0.46,0.958,0,0.132,-0.2,0.839,0,,,,,,,,,,,,,0.13,-0.33,0.899,0,,,,
92821,20110907,-80.69,28.62,0.13,-0.42,0.958,0,0.132,-0.21,0.845,0,,,,,,,,,,,,,0.131,-0.31,0.899,0,,,,
92821,20110908,-80.69,28.62,0.134,-0.36,0.887,0,0.134,-0.2,0.768,0,,,,,,,,,,,,,0.134,-0.27,0.827,0,,,,
92821,20110909,-80.69,28.62,0.134,-0.34,0.881,0,0.134,-0.21,0.768,0,,,,,,,,,,,,,0.134,-0.26,0.81,0,,,,
92821,20110910,-80.69,28.62,0.138,-0.3,0.804,0,0.138,-0.19,0.732,0,,,,,,,,,,,,,0.138,-0.23,0.732,0,,,,
92821,20110911,-80.69,28.62,0.146,-0.23,0.661,0,0.147,-0.15,0.589,0,,,,,,,,,,,,,0.147,-0.18,0.589,0,,,,
92821,20110912,-80.69,28.62,0.154,-0.17,0.518,0,0.155,-0.11,0.446,0,,,,,,,,,,,,,0.154,-0.13,0.446,0,,,,
92821,20110913,-80.69,28.62,0.16,-0.14,0.375,0,0.16,-0.09,0.304,0,,,,,,,,,,,,,0.16,-0.1,0.304,0,,,,